Location: Peach Mountain Observatory
(42.3967°N, 83.9367°W)
Time: 08:45:32
(UTC-04:00)

deb Explorer IX - Pass Details

Date: 26 January 2020
Orbit: 547 x 1100 km, 38.8° (Epoch: 05 April)

Event Time Altitude Azimuth Distance (km) Brightness Sun altitude
Rises 22:31:40 0° 247° (WSW) 3,714 ? -52.6°
Enters shadow 22:31:48 - 247° (WSW) 3,670 ? -52.6°
Reaches altitude 10° 22:34:17 10° 244° (WSW) 2,824 - -53.0°
Maximum altitude 22:41:08 59° 167° (SSE) 1,245 - -54.1°
Drops below altitude 10° 22:48:18 10° 90° (E) 2,950 - -55.2°
Sets 22:51:05 0° 87° (E) 3,890 - -55.6°
